User: anonymous   Login
Location: Unspecified
(0.0000°N, 0.0000°E)
Time: 01:14:11
(UTC+01:00)
Language:

ATLAS 3B CENTAUR R/B - Orbit

View from above orbital plane
View from above orbital plane
View from above satellite
View from above satellite

Ground track
Ground track

The orbit data is extracted from the following two-line orbital elements,

1 28118U 03057B   17018.48265485  .00035612  00000-0  55622-3 0  9994
2 28118  28.1209 160.0877 3149326 342.0355   8.9770  9.17468429275794
Epoch (UTC): 18 January 2017 11:35:01
Eccentricity: 0.3149326
inclination: 28.1209°
perigee height: 225 km
apogee height: 6296 km
right ascension of ascending node: 160.0877°
argument of perigee: 342.0355°
revolutions per day: 9.17468429
mean anomaly at epoch: 8.9770°
orbit number at epoch: 27579

The dashed part of the orbit path shows where the satellite is in the earth's shadow,  

DLR